Hourly Data Report for October 07, 2016

All times are specified in Local Standard Time (LST). Add 1 hour to adjust for Daylight Saving Time where and when it is observed.

KUGAARUK CLIMATE
NUNAVUT

68°32'15.060" N
89°47'47.020" W
15.80 m
2303094
71407
NBB

Download Data

Hourly Data (October 2016)
Hourly Data Report for October 7, 2016
Temp Definition
°C
Dew Point Temp Definition
°C
Rel Hum Definition
%
Wind Dir Definition
10's deg

Wind Spd Definition
km/h
Visibility Definition
km
Stn Press Definition
kPa
Hmdx Definition


Wind Chill Definition


Weather Definition


TIME
00:00 -0.9 -3.4 83 31 20   101.77   -6 LegendNANA
01:00 -0.8 -3.5 82 30 18   101.79   -6 LegendNANA
02:00 -0.8 -3.3 83 31 15   101.84   -5 LegendNANA
03:00 -0.9 -2.8 87 29 15   101.88   -6 LegendNANA
04:00 -0.8 -3.0 86 29 14   101.92   -5 LegendNANA
05:00 -1.0 -3.0 86 29 14   101.97   -5 LegendNANA
06:00 -0.9 -2.9 86 28 9   102.02   -4 LegendNANA
07:00 -1.0 -3.2 85 28 4   102.06   -2 LegendNANA
08:00 -1.4 -3.1 88 22 16   102.10   -6 LegendNANA
09:00 -1.8 -3.5 88 23 14   102.13   -6 LegendNANA
10:00 -1.6 -4.4 81 24 14   102.15   -6 LegendNANA
11:00 -1.8 -4.8 80 23 13   102.19   -6 LegendNANA
12:00 -1.8 -3.8 86 22 16   102.21   -7 LegendNANA
13:00 -1.6 -4.5 80 22 7   102.25   -4 LegendNANA
14:00 -2.5 -4.7 85 22 13   102.28   -7 LegendNANA
15:00 -2.2 -3.8 89 22 12   102.26   -6 LegendNANA
16:00 -1.6 -3.0 90 21 17   102.25   -7 LegendNANA
17:00 -1.6 -2.6 93 22 21   102.26   -7 LegendNANA
18:00 -1.6 -2.5 93 22 21   102.25   -7 LegendNANA
19:00 -1.4 -2.3 94 22 25   102.22   -8 LegendNANA
20:00 -1.1 -2.1 93 23 23   102.20   -7 LegendNANA
21:00 -0.9 -2.1 92 24 24   102.17   -7 LegendNANA
22:00 -0.7 -2.4 88 26 23   102.14   -7 LegendNANA
23:00 -1.3 -2.7 91 35 3   102.15   -2 LegendNANA

Notes on Data Quality.

Legend

  • E = Estimated
  • M = Missing
  • NA = Not Available
  • ‡ = Partner data that is not subject to review by the National Climate Archives
Date modified: